Weather History for Camden, SC

Change the Weather History Date:

Sunday, July 28, 2013

  Actual Average (KSSC) Record (KSSC)
Temperature  
Mean Temperature 80 °F -  
Max Temperature 89 °F 87 °F 98 °F (2002)
Min Temperature 71 °F 69 °F 68 °F (2007)
Cooling Degree Days 15    
Growing Degree Days 30 (Base 50)    
Moisture  
Dew Point 73 °F    
Average Humidity 87    
Maximum Humidity 100    
Minimum Humidity 52    
Precipitation  
Precipitation 1.15 in - - ()
Sea Level Pressure  
Sea Level Pressure 29.98 in    
Wind  
Wind Speed 3 mph (SW)    
Max Wind Speed 12 mph    
Max Gust Speed 17 mph    
Visibility 8 miles    
Events Rain , Thunderstorm    
Averages and records for this station are not official NWS values.
T = Trace of Precipitation, MM = Missing Value Source: NWS Daily Summary

Daily Weather History Graph

Daily Weather History Graph

Search for Another Location

Airport:

Trip Planner

Search our weather history database for the weather conditions in past years. The results will help you decide how hot, cold, wet, or windy it might be!

Date:

Astronomy

Jul. 28, 2013 Rise Set
Actual Time 6:30 AM EDT 8:26 PM EDT
Civil Twilight 6:02 AM EDT 8:54 PM EDT
Nautical Twilight 5:28 AM EDT 9:27 PM EDT
Astronomical Twilight 4:52 AM EDT 10:03 PM EDT
Moon No Moon Rise 12:50 PM EDT (7/28)
Length of Visible Light 14h 51m
Length of Day
13h 56m
Waning Gibbous, 61% of the Moon is Illuminated
Jul 28
Waning Gibbous
Jul 29
Last Quarter
Aug 6
New
Aug 14
First Quarter
Aug 20
Full

Hourly Weather History & Observations

Time (EDT) Temp. Heat Index Dew Point Humidity Pressure Visibility Wind Dir Wind Speed Gust Speed Precip Events Conditions
12:15 AM 71.6 °F - 71.6 °F 100% 29.98 in 10.0 mi Calm Calm - 0.00 in   Partly Cloudy
12:35 AM 71.6 °F - 71.6 °F 100% 29.98 in 10.0 mi Calm Calm - 0.00 in   Scattered Clouds
12:55 AM 71.6 °F - 71.6 °F 100% 29.97 in 10.0 mi SE 3.5 mph - 0.00 in   Partly Cloudy
1:15 AM 71.6 °F - 71.6 °F 100% 29.96 in 9.0 mi ESE 3.5 mph - 0.00 in   Partly Cloudy
1:35 AM 71.6 °F - 71.6 °F 100% 29.96 in 10.0 mi Calm Calm - 0.00 in   Partly Cloudy
1:55 AM 71.6 °F - 71.6 °F 100% 29.96 in 10.0 mi Calm Calm - 0.00 in   Clear
2:15 AM 71.6 °F - 71.6 °F 100% 29.95 in 10.0 mi ESE 3.5 mph - 0.00 in   Clear
2:35 AM 71.6 °F - 71.6 °F 100% 29.95 in 10.0 mi Calm Calm - 0.00 in   Clear
2:55 AM 71.6 °F - 71.6 °F 100% 29.95 in 10.0 mi Calm Calm - 0.00 in   Clear
3:15 AM 71.6 °F - 71.6 °F 100% 29.96 in 10.0 mi Calm Calm - 0.00 in   Mostly Cloudy
3:35 AM 71.6 °F - 71.6 °F 100% 29.96 in 10.0 mi Calm Calm - 0.00 in   Mostly Cloudy
3:55 AM 71.6 °F - 71.6 °F 100% 29.96 in 10.0 mi Calm Calm - 0.00 in   Overcast
4:15 AM 71.6 °F - 71.6 °F 100% 29.96 in 10.0 mi Calm Calm - 0.00 in   Scattered Clouds
4:35 AM 71.6 °F - 71.6 °F 100% 29.96 in 8.0 mi Calm Calm - 0.00 in   Scattered Clouds
4:55 AM 71.6 °F - 71.6 °F 100% 29.95 in 9.0 mi Calm Calm - 0.00 in   Scattered Clouds
5:15 AM 71.6 °F - 71.6 °F 100% 29.96 in 8.0 mi Calm Calm - 0.00 in   Mostly Cloudy
5:35 AM 71.6 °F - 71.6 °F 100% 29.96 in 7.0 mi Calm Calm - 0.00 in   Mostly Cloudy
5:55 AM 71.6 °F - 71.6 °F 100% 29.96 in 9.0 mi Calm Calm - 0.00 in   Mostly Cloudy
6:15 AM 71.6 °F - 71.6 °F 100% 29.97 in 9.0 mi Calm Calm - 0.00 in   Mostly Cloudy
6:35 AM 71.6 °F - 71.6 °F 100% 29.97 in 9.0 mi SW 3.5 mph - 0.00 in   Mostly Cloudy
6:55 AM 71.6 °F - 71.6 °F 100% 29.98 in 4.0 mi Calm Calm - 0.00 in   Overcast
7:15 AM 71.6 °F - 71.6 °F 100% 29.98 in 6.0 mi SSW 3.5 mph - 0.00 in   Overcast
7:35 AM 71.6 °F - 71.6 °F 100% 29.98 in 8.0 mi SW 3.5 mph - 0.00 in   Overcast
7:55 AM 71.6 °F - 71.6 °F 100% 29.99 in 8.0 mi Calm Calm - 0.00 in   Overcast
8:15 AM 71.6 °F - 71.6 °F 100% 29.99 in 8.0 mi Calm Calm - 0.00 in   Overcast
8:35 AM 73.4 °F - 73.4 °F 100% 29.99 in 5.0 mi South 4.6 mph - 0.00 in   Overcast
8:55 AM 73.4 °F - 73.4 °F 100% 29.99 in 1.5 mi SW 4.6 mph - 0.00 in   Overcast
9:15 AM 73.4 °F - 73.4 °F 100% 29.99 in 2.0 mi West 6.9 mph - 0.00 in   Overcast
9:35 AM 73.4 °F - 73.4 °F 100% 29.99 in 3.0 mi West 6.9 mph - 0.00 in   Overcast
9:55 AM 75.2 °F - 75.2 °F 100% 30.00 in 5.0 mi West 6.9 mph - 0.00 in   Overcast
10:15 AM 75.2 °F - 75.2 °F 100% 29.99 in 8.0 mi SSW 4.6 mph - 0.00 in   Mostly Cloudy
10:35 AM 77.0 °F - 77.0 °F 100% 29.99 in 8.0 mi SSW 3.5 mph - 0.00 in   Mostly Cloudy
10:55 AM 78.8 °F - 78.8 °F 100% 30.00 in 9.0 mi SW 3.5 mph - 0.00 in   Mostly Cloudy
11:15 AM 80.6 °F 88.1 °F 78.8 °F 94% 29.99 in 10.0 mi SW 5.8 mph - 0.00 in   Partly Cloudy
11:35 AM 80.6 °F 88.1 °F 78.8 °F 94% 29.99 in 9.0 mi South 4.6 mph - 0.00 in   Clear
11:55 AM 84.2 °F 90.9 °F 73.4 °F 70% 30.00 in 10.0 mi SW 8.1 mph - 0.00 in   Partly Cloudy
12:15 PM 84.2 °F 90.9 °F 73.4 °F 70% 29.99 in 10.0 mi WSW 10.4 mph - 0.00 in   Clear
12:35 PM 86.0 °F 91.8 °F 71.6 °F 62% 29.99 in 10.0 mi WSW 9.2 mph - 0.00 in   Clear
12:55 PM 84.2 °F 89.6 °F 71.6 °F 66% 29.99 in 10.0 mi SW 10.4 mph - 0.00 in   Clear
1:15 PM 86.0 °F 91.8 °F 71.6 °F 62% 29.99 in 10.0 mi WSW 8.1 mph - 0.00 in   Clear
1:35 PM 87.8 °F 93.8 °F 71.6 °F 58% 29.99 in 10.0 mi West 9.2 mph - 0.00 in   Partly Cloudy
1:55 PM 86.0 °F 93.4 °F 73.4 °F 66% 29.99 in 10.0 mi West 9.2 mph - 0.00 in   Scattered Clouds
2:15 PM 87.8 °F 93.8 °F 71.6 °F 58% 29.98 in 10.0 mi West 11.5 mph 16.1 mph 0.00 in   Partly Cloudy
2:35 PM 87.8 °F 93.8 °F 71.6 °F 58% 29.98 in 10.0 mi WSW 10.4 mph - 0.00 in   Clear
2:55 PM 87.8 °F 93.8 °F 71.6 °F 58% 29.98 in 10.0 mi SW 8.1 mph - 0.00 in   Clear
3:15 PM 89.6 °F 96.2 °F 71.6 °F 55% 29.97 in 10.0 mi West 5.8 mph - 0.00 in   Clear
3:35 PM 89.6 °F 96.2 °F 71.6 °F 55% 29.97 in 10.0 mi WSW 6.9 mph - 0.00 in   Clear
3:55 PM 89.6 °F 96.2 °F 71.6 °F 55% 29.96 in 10.0 mi West 6.9 mph - 0.00 in   Partly Cloudy
4:15 PM 89.6 °F 96.2 °F 71.6 °F 55% 29.96 in 10.0 mi West 6.9 mph - 0.00 in   Clear
4:35 PM 89.6 °F 96.2 °F 71.6 °F 55% 29.96 in 10.0 mi SW 5.8 mph - 0.00 in   Partly Cloudy
4:55 PM 89.6 °F 96.2 °F 71.6 °F 55% 29.95 in 10.0 mi WSW 4.6 mph - 0.00 in   Partly Cloudy
5:15 PM 89.6 °F 96.2 °F 71.6 °F 55% 29.96 in 10.0 mi NW 4.6 mph - 0.00 in   Clear
5:35 PM 89.6 °F 96.2 °F 71.6 °F 55% 29.96 in 10.0 mi WSW 5.8 mph - 0.00 in   Clear
5:55 PM 89.6 °F 96.2 °F 71.6 °F 55% 29.95 in 10.0 mi West 5.8 mph - 0.00 in   Clear
6:15 PM 89.6 °F 94.7 °F 69.8 °F 52% 29.95 in 10.0 mi SSW 8.1 mph - 0.00 in   Clear
6:35 PM 87.8 °F 99.7 °F 77.0 °F 70% 29.96 in 10.0 mi South 5.8 mph - 0.00 in   Scattered Clouds
6:55 PM 84.2 °F 92.3 °F 75.2 °F 74% 29.97 in 10.0 mi South 5.8 mph - 0.00 in   Scattered Clouds
7:15 PM 84.2 °F 94.1 °F 77.0 °F 79% 29.98 in 10.0 mi South 5.8 mph - 0.00 in   Partly Cloudy
7:35 PM 82.4 °F 92.4 °F 78.8 °F 89% 29.98 in 10.0 mi SSE 4.6 mph - 0.00 in   Mostly Cloudy
7:55 PM 82.4 °F 90.9 °F 77.0 °F 84% 29.99 in 10.0 mi SE 5.8 mph - 0.00 in   Mostly Cloudy
8:15 PM 80.6 °F 88.1 °F 78.8 °F 94% 30.00 in 10.0 mi SE 5.8 mph - 0.00 in   Mostly Cloudy
8:35 PM 78.8 °F - 78.8 °F 100% 30.01 in 5.0 mi ESE 5.8 mph - 0.00 in Thunderstorm Light Drizzle
8:55 PM 75.2 °F - 75.2 °F 100% 30.00 in 1.8 mi SSE 4.6 mph - 0.24 in   Light Drizzle
9:15 PM 75.2 °F - 75.2 °F 100% 30.02 in 10.0 mi Calm Calm - 0.00 in Thunderstorm Mostly Cloudy
9:35 PM 75.2 °F - 75.2 °F 100% 30.02 in 4.0 mi Calm Calm - 0.04 in   Mostly Cloudy
9:55 PM 73.4 °F - 73.4 °F 100% 30.03 in 1.5 mi NE 6.9 mph - 0.29 in Rain , Thunderstorm Heavy Thunderstorms and Rain
10:15 PM 73.4 °F - 73.4 °F 100% 30.03 in 3.0 mi WNW 3.5 mph 17.3 mph 0.55 in Rain Heavy Rain
10:35 PM 73.4 °F - 73.4 °F 100% 30.03 in 8.0 mi Calm Calm - 0.59 in Thunderstorm Mostly Cloudy
10:55 PM 73.4 °F - 73.4 °F 100% 30.03 in 5.0 mi Calm Calm - 0.59 in Thunderstorm Mostly Cloudy
11:15 PM 73.4 °F - 73.4 °F 100% 30.03 in 4.0 mi ESE 3.5 mph - 0.03 in   Overcast
11:35 PM 73.4 °F - 73.4 °F 100% 30.04 in 6.0 mi SE 3.5 mph - 0.03 in   Scattered Clouds
11:55 PM 73.4 °F - 73.4 °F 100% 30.04 in 7.0 mi SE 4.6 mph - 0.03 in   Scattered Clouds